This is the latest recevied weather packets stored in our database for station/object ON7SD-5. If no packets are shown the sender has not sent any weather packets the latest 10 day(s).
| Time | Temp. | Humidity | Pressure | Rain* | Wind** | Luminosity | Snow |
|---|---|---|---|---|---|---|---|
| 1777476439 | 22.22° C | 26% | 1020.6 hPa | 0 mm | - | 533 W/m² | - |
| 1777476139 | 22.22° C | 26% | 1020.6 hPa | 0 mm | - | 548 W/m² | - |
| 1777475839 | 22.22° C | 27% | 1020.6 hPa | 0 mm | - | 557 W/m² | - |
| 1777475239 | 22.22° C | 26% | 1020.7 hPa | 0 mm | - | 582 W/m² | - |
| 1777474939 | 22.22° C | 26% | 1020.7 hPa | 0 mm | - | 592 W/m² | - |
| 1777474639 | 22.22° C | 26% | 1020.6 hPa | 0 mm | - | 601 W/m² | - |
| 1777473439 | 22.22° C | 25% | 1020.7 hPa | 0 mm | - | 643 W/m² | - |
| 1777473139 | 21.67° C | 25% | 1020.7 hPa | 0 mm | - | 656 W/m² | - |
| 1777472839 | 22.22° C | 25% | 1020.7 hPa | 0 mm | - | 664 W/m² | - |
| 1777472239 | 22.22° C | 25% | 1020.8 hPa | 0 mm | - | 684 W/m² | - |
| 1777471339 | 22.22° C | 25% | 1020.9 hPa | 0 mm | - | 708 W/m² | - |
| 1777471039 | 21.67° C | 25% | 1020.8 hPa | 0 mm | - | 717 W/m² | - |
| 1777469539 | 21.67° C | 24% | 1021 hPa | 0 mm | - | 749 W/m² | - |
| 1777469239 | 21.67° C | 25% | 1021 hPa | 0 mm | - | 758 W/m² | - |
| 1777468939 | 21.67° C | 25% | 1021 hPa | 0 mm | - | 756 W/m² | - |
| 1777468639 | 21.67° C | 25% | 1021.1 hPa | 0 mm | - | 747 W/m² | - |
| 1777468339 | 21.67° C | 26% | 1021.1 hPa | 0 mm | - | 747 W/m² | - |
| 1777468039 | 21.67° C | 25% | 1021.1 hPa | 0 mm | - | 765 W/m² | - |
| 1777467739 | 21.67° C | 27% | 1021.1 hPa | 0 mm | - | 780 W/m² | - |
| 1777467439 | 21.67° C | 28% | 1021.1 hPa | 0 mm | - | 784 W/m² | - |
| 1777466239 | 21.11° C | 28% | 1021.2 hPa | 0 mm | - | 647 W/m² | - |
| 1777465939 | - | - | 1021.3 hPa | 0 mm | - | 664 W/m² | - |
| 1777465639 | - | - | 1021.3 hPa | 0 mm | - | 664 W/m² | - |
| 1777465339 | - | - | 1021.3 hPa | 0 mm | - | 664 W/m² | - |
| 1777465039 | 20.56° C | 30% | 1021.4 hPa | 0 mm | - | 664 W/m² | - |
* Rain latest hour (hover to see other rain measurements)
** Current wind speed in m/s (hover to see current wind gust speed)